Frenchville, ME

4:45 AM EDT on April 25, 2018 (GMT -0400)
Northern Aroostook Regional

Weather History for KFVE - March, 2012

Change the Weather History Date:

Saturday, March 10, 2012

  Actual Average Record
Temperature  
Mean Temperature 15 °F 21 °F  
Max Temperature 23 °F 30 °F 45 °F (1998)
Min Temperature 6 °F 13 °F -11 °F (2003)
Degree Days  
Heating Degree Days 50    
Month to date heating degree days 441  
Since 1 July heating degree days 6815  
Cooling Degree Days 0    
Month to date cooling degree days 0  
Year to date cooling degree days 0  
Moisture  
Dew Point 2 °F    
Average Humidity 59    
Maximum Humidity 77    
Minimum Humidity 42    
Precipitation  
Precipitation 0.00 in 0.03 in 0.60 in (2002)
Month to date precipitation 0.28 0.33  
Year to date precipitation 2.56 2.90  
Sea Level Pressure  
Sea Level Pressure 30.37 in    
Wind  
Wind Speed 7 mph (NNW)    
Max Wind Speed 16 mph    
Max Gust Speed 21 mph    
Visibility 10 miles    
Events      
T = Trace of Precipitation, MM = Missing Value Source: NWS Daily Summary

Daily Weather History Graph

Daily Weather History Graph

Search for Another Location

Airport or City:

Astronomy

Mar. 10, 2012 Rise Set
Actual Time 5:55 AM EST 5:32 PM EST
Civil Twilight 5:24 AM EST 6:02 PM EST
Nautical Twilight 4:49 AM EST 6:38 PM EST
Astronomical Twilight 4:13 AM EST 7:14 PM EST
Moon 8:58 PM EST (3/10) 6:33 AM EST (3/10)
Length of Visible Light 12h 38m
Length of Day
11h 37m
Waning Gibbous, 93% of the Moon is Illuminated
Mar 10
Waning Gibbous
Mar 14
Last Quarter
Mar 22
New
Mar 30
First Quarter
Apr 6
Full

Hourly Weather History & Observations

Time (EST) Temp. Windchill Dew Point Humidity Pressure Visibility Wind Dir Wind Speed Gust Speed Precip Events Conditions
12:53 AM 14.0 °F 5.1 °F 3.9 °F 64% 30.17 in 10.0 mi NW 5.8 mph - N/A   Clear
1:53 AM 12.9 °F 1.6 °F 3.9 °F 67% 30.20 in 10.0 mi NW 8.1 mph - N/A   Clear
2:53 AM 10.0 °F -3.7 °F 3.0 °F 73% 30.22 in 10.0 mi NNW 10.4 mph - N/A   Clear
3:53 AM 8.1 °F -4.3 °F 1.9 °F 76% 30.25 in 10.0 mi NNW 8.1 mph - N/A   Clear
4:53 AM 9.0 °F -4.2 °F 1.9 °F 73% 30.28 in 10.0 mi NNW 9.2 mph - N/A   Clear
5:53 AM 7.0 °F -7.5 °F 1.0 °F 77% 30.32 in 10.0 mi NNW 10.4 mph - N/A   Clear
6:53 AM 8.1 °F -4.3 °F 1.9 °F 76% 30.35 in 10.0 mi North 8.1 mph - N/A   Clear
7:53 AM 10.9 °F -3.4 °F 1.9 °F 67% 30.39 in 10.0 mi North 11.5 mph - N/A   Clear
8:53 AM 12.9 °F 0.7 °F 1.9 °F 62% 30.41 in 10.0 mi NNW 9.2 mph - N/A   Clear
9:53 AM 14.0 °F 2.9 °F 1.0 °F 56% 30.41 in 10.0 mi NNW 8.1 mph - 0.00 in   Clear
10:53 AM 17.1 °F 6.6 °F 1.9 °F 52% 30.41 in 10.0 mi North 8.1 mph 17.3 mph 0.00 in   Clear
11:53 AM 18.0 °F 8.7 °F 1.9 °F 50% 30.41 in 10.0 mi NNW 6.9 mph - N/A   Clear
12:53 PM 19.9 °F 9.3 °F 1.9 °F 46% 30.41 in 10.0 mi WNW 9.2 mph - N/A   Clear
1:53 PM 21.0 °F 9.9 °F 3.9 °F 48% 30.40 in 10.0 mi West 10.4 mph - N/A   Clear
2:53 PM 21.9 °F 10.4 °F 3.0 °F 44% 30.40 in 10.0 mi West 11.5 mph - N/A   Clear
3:53 PM 21.9 °F 12.5 °F 1.9 °F 42% 30.39 in 10.0 mi NW 8.1 mph - N/A   Clear
4:53 PM 21.0 °F 13.4 °F 1.9 °F 44% 30.39 in 10.0 mi NNE 5.8 mph - N/A   Clear
5:53 PM 18.0 °F 11.1 °F 1.9 °F 50% 30.41 in 10.0 mi NNW 4.6 mph - N/A   Clear
6:53 PM 17.1 °F 11.7 °F 1.9 °F 52% 30.43 in 10.0 mi NNW 3.5 mph - N/A   Clear
7:53 PM 16.0 °F 8.8 °F 1.9 °F 54% 30.43 in 10.0 mi NNW 4.6 mph - N/A   Clear
8:53 PM 15.1 °F - 1.9 °F 56% 30.43 in 10.0 mi Calm Calm - N/A   Clear
9:53 PM 15.1 °F - 1.9 °F 56% 30.44 in 10.0 mi Calm Calm - N/A   Clear
10:53 PM 12.0 °F - 1.9 °F 64% 30.43 in 10.0 mi Calm Calm - N/A   Clear
11:53 PM 12.9 °F - 1.9 °F 62% 30.43 in 10.0 mi Calm Calm - N/A   Clear